Satellite: TACSAT-3
Catalog number: 35001
Epoch time:      10139.93328315
Element set:    0292
Inclination:      040.4574 deg
RA of node:       023.7990 deg
Eccentricity:    0.0019953
Arg of perigee:   156.6171 deg
Mean anomaly:     203.5563 deg
Mean motion:   15.41572655 rev/day
Decay rate:      3.394e-05 rev/day^2
Epoch rev:           05627
Checksum:              294

Satellite: PHARMSAT
Catalog number: 35002
Epoch time:      10140.80348655
Element set:     275
Inclination:      040.4706 deg
RA of node:       016.6726 deg
Eccentricity:    0.0023162
Arg of perigee:   166.4579 deg
Mean anomaly:     193.6863 deg
Mean motion:   15.42131848 rev/day
Decay rate:      3.309e-05 rev/day^2
Epoch rev:            5642
Checksum:              283

Satellite: HAWKSAT1
Catalog number: 35003
Epoch time:      10139.92535491
Element set:    0294
Inclination:      040.4634 deg
RA of node:       017.5484 deg
Eccentricity:    0.0021361
Arg of perigee:   174.9099 deg
Mean anomaly:     185.1968 deg
Mean motion:   15.44990531 rev/day
Decay rate:      6.505e-05 rev/day^2
Epoch rev:           05634
Checksum:              302

Satellite: CP6
Catalog number: 35004
Epoch time:      10139.93677658
Element set:    0291
Inclination:      040.4666 deg
RA of node:       016.7526 deg
Eccentricity:    0.0020304
Arg of perigee:   177.7418 deg
Mean anomaly:     182.3515 deg
Mean motion:   15.45736858 rev/day
Decay rate:      7.831e-05 rev/day^2
Epoch rev:           05634
Checksum:              314

Satellite: AEROCUB3
Catalog number: 35005
Epoch time:      10140.78502488
Element set:     318
Inclination:      040.4732 deg
RA of node:       010.3096 deg
Eccentricity:    0.0016984
Arg of perigee:   198.0491 deg
Mean anomaly:     161.9725 deg
Mean motion:   15.49924867 rev/day
Decay rate:     2.4469e-04 rev/day^2
Epoch rev:            5649
Checksum:              317

Satellite: DRAGNSAT
Catalog number: 35690
Epoch time:      10076.22711312
Element set:     316
Inclination:      051.6170 deg
RA of node:       315.4586 deg
Eccentricity:    0.0004999
Arg of perigee:   310.9891 deg
Mean anomaly:     057.3269 deg
Mean motion:   16.42150010 rev/day
Decay rate:   5.715194e-02 rev/day^2
Epoch rev:            3656
Checksum:              289

Satellite: POLLUX
Catalog number: 35693
Epoch time:      10087.99866888
Element set:     352
Inclination:      051.6099 deg
RA of node:       254.5746 deg
Eccentricity:    0.0006270
Arg of perigee:   294.4866 deg
Mean anomaly:     097.5899 deg
Mean motion:   16.52338462 rev/day
Decay rate:  2.3496735e-01 rev/day^2
Epoch rev:            3839
Checksum:              384

Satellite: CASTOR
Catalog number: 35694
Epoch time:      10140.85895061
Element set:     391
Inclination:      051.6357 deg
RA of node:       346.0533 deg
Eccentricity:    0.0002752
Arg of perigee:   125.5377 deg
Mean anomaly:     234.5892 deg
Mean motion:   15.98460136 rev/day
Decay rate:     7.0880e-04 rev/day^2
Epoch rev:            4668
Checksum:              315

Satellite: METEOR-M
Catalog number: 35865
Epoch time:      10140.68933360
Element set:     312
Inclination:      098.7593 deg
RA of node:       194.6802 deg
Eccentricity:    0.0003407
Arg of perigee:   077.2976 deg
Mean anomaly:     282.8560 deg
Mean motion:   14.21830236 rev/day
Decay rate:       1.76e-06 rev/day^2
Epoch rev:            3481
Checksum:              301

Satellite: RS-38
Catalog number: 35869
Epoch time:      10140.66377829
Element set:     318
Inclination:      098.7596 deg
RA of node:       194.6859 deg
Eccentricity:    0.0005575
Arg of perigee:   084.4555 deg
Mean anomaly:     275.7243 deg
Mean motion:   14.21981806 rev/day
Decay rate:       1.77e-06 rev/day^2
Epoch rev:            3481
Checksum:              358

/EX




More information about the Keps mailing list